| time (UTC) | temp F | wind direction | speed MPH | gust MPH | rain 1hr in | rain 24hr in | rain mn in | humidity % | barometer mb |
| 20260502213325 | 42 | 142 | 2.0 | 0.0 | 0.00 | 0.00 | 0.01 | 77 | 1011.7 |
| 20260502210321 | 42 | 210 | 2.0 | 0.0 | 0.00 | 0.00 | 0.01 | 82 | 1011.8 |
| 20260502203318 | 41 | 217 | 4.0 | 0.0 | 0.00 | 0.00 | 0.01 | 83 | 1012.1 |
| 20260502200339 | 42 | 234 | 1.0 | 0.0 | 0.00 | 0.00 | 0.00 | 82 | 1011.9 |
| 20260502193329 | 43 | 200 | 4.0 | 0.0 | 0.00 | 0.00 | 0.00 | 77 | 1012.1 |
| 20260502190327 | 44 | 23 | 0.0 | 0.0 | 0.00 | 0.00 | 0.00 | 78 | 1012.2 |
| 20260502183343 | 44 | 22 | 2.0 | 0.0 | 0.00 | 0.00 | 0.00 | 73 | 1012.1 |
| 20260502180340 | 45 | 25 | 2.0 | 0.0 | 0.00 | 0.00 | 0.00 | 70 | 1011.9 |
| 20260502170325 | 45 | 79 | 3.0 | 0.0 | 0.00 | 0.00 | 0.00 | 69 | 1012.5 |
| 20260502163318 | 45 | 344 | 2.0 | 0.0 | 0.00 | 0.00 | 0.00 | 64 | 1012.6 |
| 20260502160341 | 43 | 5 | 2.0 | 0.0 | 0.00 | 0.00 | 0.00 | 71 | 1013.0 |
| 20260502150320 | 45 | 53 | 3.0 | 0.0 | 0.00 | 0.00 | 0.00 | 62 | 1013.0 |
| 20260502130331 | 42 | 18 | 3.0 | 0.0 | 0.00 | 0.00 | 0.00 | 68 | 1012.9 |
| 20260502123327 | 40 | 360 | 3.0 | 0.0 | 0.00 | 0.00 | 0.00 | 73 | 1012.7 |
| 20260502120329 | 39 | 333 | 3.0 | 0.0 | 0.00 | 0.00 | 0.00 | 74 | 1013.0 |
| 20260502113319 | 38 | 32 | 3.0 | 0.0 | 0.00 | 0.00 | 0.00 | 76 | 1012.4 |
| 20260502110317 | 37 | 34 | 4.0 | 0.0 | 0.00 | 0.00 | 0.00 | 76 | 1011.9 |
| 20260502103332 | 36 | 355 | 4.0 | 0.0 | 0.00 | 0.00 | 0.00 | 80 | 1011.9 |
| 20260502100331 | 34 | 360 | 4.0 | 0.0 | 0.00 | 0.00 | 0.00 | 85 | 1011.2 |
| 20260502090329 | 33 | 9 | 5.0 | 0.0 | 0.00 | 0.00 | 0.00 | 86 | 1010.4 |
| 20260502070354 | 34 | 14 | 4.0 | 0.0 | 0.00 | 0.00 | 0.00 | 84 | 1009.6 |
| 20260502063345 | 34 | 307 | 4.0 | 0.0 | 0.00 | 0.00 | 0.00 | 84 | 1009.6 |
| 20260502060342 | 35 | 26 | 4.0 | 0.0 | 0.00 | 0.00 | 0.00 | 83 | 1009.6 |
| 20260502053332 | 35 | 325 | 4.0 | 0.0 | 0.00 | 0.00 | 0.00 | 83 | 1009.4 |
| 20260502050326 | 35 | 333 | 4.0 | 0.0 | 0.00 | 0.00 | 0.00 | 83 | 1009.3 |
| 20260502043343 | 35 | 360 | 4.0 | 0.0 | 0.00 | 0.00 | 0.00 | 83 | 1009.2 |
| 20260502040343 | 36 | 315 | 5.0 | 0.0 | 0.00 | 0.00 | 0.05 | 84 | 1009.0 |
| 20260502033329 | 36 | 330 | 4.0 | 0.0 | 0.00 | 0.00 | 0.05 | 84 | 1009.9 |
| 20260502030324 | 36 | 329 | 5.0 | 0.0 | 0.00 | 0.00 | 0.05 | 84 | 1009.8 |
| 20260502023347 | 37 | 308 | 5.0 | 0.0 | 0.00 | 0.00 | 0.05 | 83 | 1009.9 |
| 20260502020343 | 38 | 30 | 7.0 | 0.0 | 0.00 | 0.00 | 0.05 | 81 | 1009.6 |
| 20260502013330 | 40 | 15 | 7.0 | 0.0 | 0.00 | 0.00 | 0.05 | 80 | 1009.6 |
| 20260502010325 | 41 | 341 | 6.0 | 0.0 | 0.00 | 0.00 | 0.05 | 82 | 1009.2 |
| 20260502003321 | 42 | 50 | 5.0 | 0.0 | 0.00 | 0.00 | 0.05 | 84 | 1008.5 |
| 20260502000342 | 43 | 346 | 5.0 | 0.0 | 0.00 | 0.00 | 0.05 | 84 | 1007.9 |
| 20260501233329 | 43 | 48 | 5.0 | 0.0 | 0.00 | 0.00 | 0.05 | 84 | 1007.3 |
| 20260501230323 | 44 | 86 | 7.0 | 0.0 | 0.00 | 0.00 | 0.05 | 83 | 1007.0 |
| 20260501223345 | 46 | 5 | 5.0 | 0.0 | 0.00 | 0.00 | 0.05 | 81 | 1006.4 |
| 20260501220329 | 47 | 71 | 6.0 | 0.0 | 0.00 | 0.00 | 0.05 | 84 | 1006.1 |